Flag for U.S.A. Weather past 2 weeks in Greeley, Colorado, U.S.A.

Now
36 °F

Clear.


Feels Like: 25 °F
Forecast: 26 / 40 °F
Wind: 17 mph from North

Location: Greeley / Weld

Current Time: Dec 22, 2014 at 4:50:22 PM

Latest Report: Dec 22, 2014 at 4:35 PM


Visibility: 10 mi

Pressure: 29.72 "Hg

Humidity: 44%

Dew point: 16 °F

Location of GreeleyLocation

Historic Weather in Greeley — Graph

°F

Greeley temperature yesterday

Maximum temperature yesterday: 52 °F (at 3:15 PM)
Minimum temperature yesterday: 16 °F (at 4:55 AM)
Average temperature yesterday: 33 °F

Past Weeks' High & Low Weather Summary

 TemperatureHumidityPressure
High57 °F (Dec 11, 2:55 PM)86% (Dec 15, 7:35 AM)30.35 "Hg (Dec 15, 7:35 AM)
Low10 °F (Dec 16, 4:35 AM)24% (Dec 10, 12:55 PM)29.50 "Hg (Dec 21, 3:15 PM)
Average29 °F60%29.99 "Hg
* Reported Dec 8 11:35 AM — Dec 22 3:35 PM, Greeley, Weather by CustomWeather, © 2014

Note: Actual official high and low records may vary slightly from our data, if they occured in-between our weather recording intervals... More about our weather records

Advertising

Greeley weather history for previous 24 hours

 ConditionsComfort  
Time TempWeatherWind HumidityBarometerVisibility
3:35 PM
Dec 22
37 °FSunny.17 mph45%29.70 "Hg10 mi
3:15 PM39 °FPassing clouds.12 mph42%29.69 "Hg10 mi
2:35 PM39 °FMostly cloudy.16 mph42%29.67 "Hg10 mi
2:15 PM39 °FBroken clouds.13 mph42%29.66 "Hg10 mi
1:55 PM39 °FBroken clouds.18 mph45%29.67 "Hg10 mi
1:35 PM37 °FMostly cloudy.14 mph45%29.67 "Hg7 mi
1:15 PM39 °FBroken clouds.22 mph42%29.67 "Hg10 mi
12:55 PM39 °FScattered clouds.16 mph45%29.67 "Hg10 mi
12:35 PM37 °FPassing clouds.18 mph48%29.67 "Hg10 mi
12:15 PM39 °FScattered clouds.24 mph45%29.67 "Hg10 mi
11:55 AM39 °FBroken clouds.23 mph45%29.67 "Hg10 mi
11:35 AM39 °FBroken clouds.24 mph42%29.68 "Hg8 mi
10:55 AM41 °FScattered clouds.22 mph42%29.69 "Hg10 mi
10:35 AM45 °FSunny.24 mph39%29.69 "Hg10 mi
10:15 AM41 °FSunny.18 mph45%29.70 "Hg10 mi
9:55 AM37 °FPassing clouds.10 mph45%29.71 "Hg10 mi
9:35 AM36 °FPassing clouds.9 mph52%29.71 "Hg10 mi
9:15 AM36 °FSunny.9 mph52%29.72 "Hg10 mi
8:55 AM34 °FSunny.12 mph56%29.71 "Hg10 mi
8:35 AM30 °FSunny.12 mph59%29.72 "Hg10 mi
8:15 AM28 °FSunny.9 mph64%29.73 "Hg10 mi
7:55 AM28 °FSunny.8 mph64%29.73 "Hg10 mi
7:35 AM27 °FSunny.7 mph64%29.73 "Hg10 mi
7:15 AM30 °FClear.9 mph59%29.73 "Hg10 mi
6:55 AM28 °FClear.8 mph59%29.73 "Hg10 mi
6:35 AM30 °FClear.12 mph64%29.73 "Hg10 mi
6:15 AM32 °FClear.13 mph60%29.73 "Hg10 mi
5:55 AM34 °FClear.13 mph56%29.73 "Hg10 mi
5:35 AM34 °FClear.15 mph56%29.72 "Hg10 mi
5:15 AM34 °FClear.15 mph51%29.72 "Hg10 mi
4:55 AM32 °FClear.15 mph55%29.71 "Hg10 mi
4:35 AM30 °FPassing clouds.14 mph64%29.71 "Hg10 mi
4:15 AM30 °FPassing clouds.13 mph64%29.71 "Hg10 mi
3:55 AM30 °FPassing clouds.10 mph64%29.71 "Hg10 mi
3:35 AM32 °FPassing clouds.13 mph60%29.71 "Hg10 mi
3:15 AM34 °FClear.14 mph56%29.70 "Hg10 mi
2:55 AM34 °FClear.14 mph60%29.71 "Hg10 mi
2:35 AM34 °FClear.16 mph60%29.70 "Hg10 mi
2:15 AM36 °FClear.16 mph56%29.69 "Hg10 mi
1:55 AM36 °FClear.18 mph60%29.69 "Hg10 mi
1:35 AM37 °FClear.22 mph56%29.69 "Hg10 mi
1:15 AM36 °FClear.20 mph60%29.68 "Hg10 mi
12:55 AM37 °FPassing clouds.21 mph52%29.67 "Hg10 mi
12:35 AM37 °FPassing clouds.18 mph52%29.66 "Hg10 mi
12:15 AM37 °FClear.14 mph52%29.66 "Hg10 mi
11:55 PM
Dec 21
39 °FClear.20 mph52%29.66 "Hg10 mi
11:35 PM37 °FClear.18 mph56%29.65 "Hg10 mi
11:15 PM36 °FClear.17 mph65%29.65 "Hg10 mi
10:55 PM34 °FClear.10 mph70%29.65 "Hg10 mi
10:35 PM34 °FClear.12 mph70%29.65 "Hg10 mi
10:15 PM36 °FPassing clouds.10 mph70%29.65 "Hg10 mi
9:55 PM37 °FPartly cloudy.26 mph65%29.66 "Hg10 mi
9:35 PM37 °FPassing clouds.31 mph65%29.64 "Hg5 mi
9:15 PM39 °FPassing clouds.28 mph65%29.64 "Hg5 mi
8:35 PM43 °FPassing clouds.18 mph57%29.57 "Hg10 mi
8:15 PM45 °FPassing clouds.23 mph57%29.57 "Hg10 mi
7:55 PM43 °FPassing clouds.17 mph61%29.57 "Hg10 mi
7:35 PM43 °FPassing clouds.23 mph61%29.56 "Hg7 mi
7:15 PM43 °FMostly cloudy.20 mph61%29.57 "Hg10 mi
6:55 PM39 °FPassing clouds.9 mph65%29.55 "Hg10 mi
6:35 PM39 °FClear.8 mph65%29.54 "Hg10 mi
6:15 PM43 °FClear.9 mph61%29.54 "Hg10 mi
5:55 PM45 °FClear.10 mph53%29.53 "Hg10 mi
5:35 PM45 °FClear.9 mph49%29.53 "Hg10 mi
5:15 PM46 °FClear.12 mph50%29.53 "Hg10 mi
4:55 PM48 °FPassing clouds.14 mph43%29.52 "Hg10 mi
4:35 PM50 °FPassing clouds.13 mph40%29.52 "Hg10 mi
4:15 PM52 °FPassing clouds.16 mph38%29.51 "Hg10 mi
Weather by CustomWeather, © 2014

See weather overviewHow to use our weather pages